Location: 相模原市立博物館
(35.5593°N, 139.3931°E)
Time: 11:32:29
(UTC+09:00)

Envisat - Pass Details

Date: 26 October 2021
Orbit: 764 x 766 km, 98.2° (Epoch: 30 November)

Event Time Altitude Azimuth Distance (km) Brightness Sun altitude
Rises 05:24:22 0° 2° (N) 3,236 6.2 -7.6°
Reaches altitude 10° 05:26:49 10° 355° (N) 2,306 5.3 -7.1°
Maximum altitude 05:31:26 37° 289° (WNW) 1,178 3.5 -6.2°
Drops below altitude 10° 05:36:03 10° 223° (SW) 2,292 5.2 -5.3°
Sets 05:38:29 0° 215° (SW) 3,214 6.0 -4.8°
